Satellite-Ground Cal/Val Site Overpasses Predictions

Prediction of Satellite NPP Overpassing Cal/Val Site: Antarctic Dome C

Ground Cal/Val Site Location: Latitude: -75.10, Longitude: 123.35; Satellite-Ground Site NADIR distance within 100 km.

Table of predicted overpasses for the next 14.0 days since TLE Epoch: 4/3/2020
Interval Starting Time Ending Time Minimum Distance Time Minimum Distance (km)
1 04/05/2020 15:07:20 04/05/2020 15:07:27 04/05/2020 15:07:23 96.50
2 04/06/2020 14:48:19 04/06/2020 14:48:48 04/06/2020 14:48:34 14.74
3 04/08/2020 07:31:09 04/08/2020 07:31:38 04/08/2020 07:31:24 2.94
4 04/11/2020 14:54:37 04/11/2020 14:55:05 04/11/2020 14:54:51 21.71
5 04/12/2020 14:35:54 04/12/2020 14:36:09 04/12/2020 14:36:02 85.32
6 04/13/2020 07:37:27 04/13/2020 07:37:54 04/13/2020 07:37:41 35.83
7 04/14/2020 07:18:41 04/14/2020 07:19:00 04/14/2020 07:18:50 74.29
8 04/16/2020 15:00:56 04/16/2020 15:01:19 04/16/2020 15:01:07 58.84


NCC Satellite Cal/Val Overpasses Prediction Service
